Regional Weather Roundup
Issued by NWS Charleston, SC

Current Version | Previous Version | Text Only | Print | Product List | Glossary Off
Versions: 1 2 3 4 5 6 7 8 9 10 11 12 13 14 15 16 17 18 19 20 21 22 23 24 25 26 27 28 29 30 31 32 33 34 35 36 37 38 39 40 41 42 43 44 45 46 47 48 49 50

000
ASUS42 KCHS 191325
RWRCHS

REGIONAL WEATHER ROUNDUP
NATIONAL WEATHER SERVICE CHARLESTON SC
900 AM EDT FRI SEP 19 2014

NOTE: "FAIR" INDICATES FEW OR NO CLOUDS BELOW 12,000 FEET WITH NO
SIGNIFICANT WEATHER AND/OR OBSTRUCTIONS TO VISIBILITY.

NOT ALL STATIONS ARE QUALITY CONTROLLED BY THE NATIONAL
WEATHER SERVICE. USE DATA WITH CAUTION...ESPECIALLY
DEWPOINT OBSERVATIONS.

SCZ027-030-031-034>040-042>050-191400-
...SOUTH CAROLINA...

CITY           SKY/WX    TMP DP  RH WIND       PRES   REMARKS
N CHARLESTON   CLOUDY    75  67  76 E8        30.06R
WATERFRONT PRK   N/A     75 N/A N/A NE8         N/A
FORT JOHNSON   NOT AVBL
MOUNT PLEASANT LGT RAIN  70  70 100 CALM      30.06S
JOHNS ISLAND   SUNNY     73  73 100 CALM      30.05S
PINOPOLIS        N/A     73  70  88 E9        29.99R
MONCKS CORNER    N/A     73  72  94 E3        30.07R
SUMMERVILLE    FAIR      72  72 100 CALM      30.07R
BEAUFORT MCAS  CLOUDY    75  72  90 W6        30.04R
BEAUFORT ARPT  FAIR      77  73  88 NE7       30.04R
HILTON HEAD IS SUNNY     77  72  83 N6        30.04S
GEORGETOWN     NOT AVBL
WALTERBORO     CLOUDY    73 N/A N/A NE5       30.07R
ORANGEBURG     CLOUDY    71  67  87 N9        30.08R
BARNWELL       CLOUDY    72  72 100 NE8       30.08R
AIKEN          CLOUDY    66  66 100 NE12      30.13S
MANNING        FAIR      72  70  94 NE3       30.08R
KINGSTREE      NOT AVBL
COLUMBIA       LGT RAIN  69  66  90 SE13      30.07S FOG
SUMTER         PTSUNNY   69  62  76 NE7       30.08R
FLORENCE       PTSUNNY   70  63  78 E8        30.10R
MYRTLE BEACH   SUNNY     72  63  73 NE10      30.08R
N MYRTLE BEACH PTSUNNY   72  65  78 NE10      30.08S

$$

GAZ063-065-086>088-099>101-113>116-118-119-134-136>141-150-191400-
...GEORGIA...

CITY           SKY/WX    TMP DP  RH WIND       PRES   REMARKS
SAVANNAH ARPT  CLOUDY    75  71  87 NE7       30.03S
HUNTER AAF     PTSUNNY   75  73  92 NE5       30.01R
FORT STEWART   PTSUNNY   73  69  89 N5        30.02R
STATESBORO     NOT AVBL
SYLVANIA       CLOUDY    74  73  97 E7        30.06S
CLAXTON        FAIR      73  73 100 NE3       30.05R
THOMSON        PTSUNNY   72  72 100 NE6       30.13R
AUGUSTA-BUSH   CLOUDY    71  68  90 NE8       30.08R
AUGUSTA-DANIEL PTSUNNY   72  67  84 NE12      30.09R
SWAINSBORO     FAIR      73  73 100 E5        30.06R
VIDALIA        CLOUDY    75  72  88 E6        30.04S
ALMA           PTSUNNY   75  71  87 E5        30.01R
WAYCROSS       MOSUNNY   78  76  94 E6        30.01S
JESUP          FAIR      79  73  83 NE5       30.02S
BRUNSWICK      CLOUDY    77  73  88 CALM      30.02R
SAINT SIMONS   CLOUDY    75  72  90 CALM      30.01R

$$

SCZ027-028-034-036>038-045-046-048>050-GAZ119-141-191400-
...LAKE AND SUPPLEMENTAL COASTAL OBSERVATIONS...

STATION/POSITION TIME  TEMP    WIND        PRES    WAVE   SWELL
                       AIR SEA DIR/SP/G            HT/PER HT/PER/DIR
                 (UTC) (F)     (DEG/KT/KT) (MB)    (FT/S) (FT/S/D)
UPR LAKE MARION  NOT AVBL
WINYAH BAY       1300   79      70/ 13     1017.0S
LAKE MURRAY      1200   68     110/  4/  7 1017.9S
ACE BASIN NERRS  1300   72      30/  1     1017.0S
FORT PULASKI     1300   79      50/  7/ 10 1017.0R
SAPELO ISLAND    1300   77      70/  3     1016.0S

$$

ANZ835-935-AMZ111-154-330-350-352-354-374-450-454-472-191400-
...C-MAN AND BUOY OBSERVATIONS...

STATION/POSITION TIME  TEMP    WIND        PRES    WAVE   SWELL
                       AIR SEA DIR/SP/G            HT/PER HT/PER/DIR
                 (UTC) (F)     (DEG/KT/KT) (MB)    (FT/S) (FT/S/D)
FOLLY BEACH CMAN 1300   76      40/ 12/ 13 1017.7F
BUOY 41004       1300   76 83   40/  8/ 12 1016.6R   4/ 6   3/ 6
BUOY 41008       1300   79 84   80/ 12/ 14 1016.2R   2/ 9   2/100/ 9
5E ST. MARYS GA  1300      84                N/A     2/11   2/120/11
FRYING PAN BUOY  NOT AVBL
BUOY 41025       1300   76      20/ 17/ 23 1019.9R   6/ 6   2/ 50/10
CAPE LOOKOUT NC  1300   75      30/ 18/ 21 1020.3R
BUOY 41002       1249   79 82   70/ 16/ 17 1017.9R   4/ 5   2/ 80/ 9
BUOY 41010       1300   83 85   80/ 10/ 12 1015.5R   3/11   3/ 60/11
BUOY 41012       NOT AVBL
ST AUGUSTINE FL  1300   82      70/  7/  8 1016.0R
CAPERS NEARSHORE 1200   79     110/ 10/ 14   N/A
FRIPP NEARSHORE  NOT AVBL


$$



USA.gov is the U.S. government's official web portal to all federal, state and local government web resources and services.